Location: Standeford and Andreas Observatories
(44.1397°N, 93.9969°W)
Time: 16:54:51
(UTC-05:00)

Cosmos 1500 Rocket - Visible Passes

Search period start: 05 May 2016 00:00
Search period end: 15 May 2016 00:00
Orbit: 603 x 633 km, 82.5° (Epoch: 04 May)

Date Brightness Start Highest point End Pass type
(mag) Time Alt. Az. Time Alt. Az. Time Alt. Az.
05 May 3.5 04:27:31 16° S 04:31:02 87° E 04:35:25 10° N visible
06 May 6.2 03:08:11 10° ESE 03:10:39 15° E 03:13:08 10° NE visible
06 May 3.8 04:44:43 16° SSW 04:48:02 51° WNW 04:52:18 10° N visible
07 May 5.4 03:24:44 15° SE 03:27:24 26° E 03:31:02 10° NNE visible
07 May 4.6 05:01:52 13° SW 05:05:08 28° WNW 05:08:57 10° NNW visible
08 May 4.4 03:41:52 23° SSE 03:44:14 47° E 03:48:26 10° NNE visible
08 May 5.3 05:19:31 10° WSW 05:22:21 17° WNW 05:25:11 10° NNW visible
09 May 3.5 03:58:58 29° S 04:01:10 88° E 04:05:32 10° N visible
10 May 6.0 02:38:55 12° ESE 02:40:47 15° E 02:43:16 10° NE visible
10 May 3.8 04:16:03 27° SW 04:18:10 50° WNW 04:22:25 10° N visible
11 May 5.3 02:55:58 21° ESE 02:57:31 26° E 03:01:10 10° NNE visible
11 May 4.7 04:33:07 19° WSW 04:35:17 28° WNW 04:39:03 10° NNW visible
12 May 4.2 03:13:01 35° SE 03:14:22 48° E 03:18:33 10° NNE visible
12 May 5.4 04:50:09 11° WSW 04:52:30 16° WNW 04:55:15 10° NNW visible
13 May 3.4 03:30:02 46° S 03:31:17 89° E 03:35:39 10° N visible
14 May 5.8 02:09:54 14° E 02:10:54 15° E 02:13:25 10° NE visible
14 May 3.9 03:47:02 37° SW 03:48:18 49° WNW 03:52:32 10° N visible
